Year,Month,Day,Hour,Minute,Value (Times are PST for temperature in C)
2014,11,28,00,00,11.70
2014,11,28,00,01,11.70
2014,11,28,00,02,11.60
2014,11,28,00,03,11.60
2014,11,28,00,04,11.60
2014,11,28,00,05,11.60
2014,11,28,00,06,11.60
2014,11,28,00,07,11.60
2014,11,28,00,08,11.50
2014,11,28,00,09,11.50
2014,11,28,00,10,11.50
2014,11,28,00,11,11.50
2014,11,28,00,12,11.40
2014,11,28,00,13,11.40
2014,11,28,00,14,11.40
2014,11,28,00,15,11.40
2014,11,28,00,16,11.40
2014,11,28,00,17,11.40
2014,11,28,00,18,11.30
2014,11,28,00,19,11.30
2014,11,28,00,20,11.30
2014,11,28,00,21,11.30
2014,11,28,00,22,11.30
2014,11,28,00,23,11.30
2014,11,28,00,24,11.30
2014,11,28,00,25,11.30
2014,11,28,00,26,11.30
2014,11,28,00,27,11.30
2014,11,28,00,28,11.30
2014,11,28,00,29,11.30
2014,11,28,00,30,11.20
2014,11,28,00,31,11.20
2014,11,28,00,32,11.20
2014,11,28,00,33,11.20
2014,11,28,00,34,11.20
2014,11,28,00,35,11.20
2014,11,28,00,36,11.10
2014,11,28,00,37,11.10
2014,11,28,00,38,11.10
2014,11,28,00,39,11.10
2014,11,28,00,40,11.10
2014,11,28,00,41,11.10
2014,11,28,00,42,11.00
2014,11,28,00,43,11.00
2014,11,28,00,44,11.00
2014,11,28,00,45,11.00
2014,11,28,00,46,11.00
2014,11,28,00,47,11.00
2014,11,28,00,48,10.90
2014,11,28,00,49,10.90
2014,11,28,00,50,10.90
2014,11,28,00,51,10.90
2014,11,28,00,52,10.90
2014,11,28,00,53,10.90
2014,11,28,00,54,10.90
2014,11,28,00,55,10.90
2014,11,28,00,56,10.90
2014,11,28,00,57,10.90
2014,11,28,00,58,10.90
2014,11,28,00,59,10.80
2014,11,28,01,00,10.80
2014,11,28,01,01,10.80
2014,11,28,01,02,10.80
2014,11,28,01,03,10.80
2014,11,28,01,04,10.80
2014,11,28,01,05,10.80
2014,11,28,01,06,10.80
2014,11,28,01,07,10.80
2014,11,28,01,08,10.80
2014,11,28,01,09,10.80
2014,11,28,01,10,10.80
2014,11,28,01,11,10.80
2014,11,28,01,12,10.80
2014,11,28,01,13,10.80
2014,11,28,01,14,10.80
2014,11,28,01,15,10.80
2014,11,28,01,16,10.80
2014,11,28,01,17,10.80
2014,11,28,01,18,10.80
2014,11,28,01,19,10.80
2014,11,28,01,20,10.80
2014,11,28,01,21,10.80
2014,11,28,01,22,10.80
2014,11,28,01,23,10.80
2014,11,28,01,24,10.80
2014,11,28,01,25,10.80
2014,11,28,01,26,10.80
2014,11,28,01,27,10.80
2014,11,28,01,28,10.80
2014,11,28,01,29,10.80
2014,11,28,01,30,10.80
2014,11,28,01,31,10.80
2014,11,28,01,32,10.80
2014,11,28,01,33,10.80
2014,11,28,01,34,10.80
2014,11,28,01,35,10.80
2014,11,28,01,36,10.90
2014,11,28,01,37,10.90
2014,11,28,01,38,10.90
2014,11,28,01,39,10.90
2014,11,28,01,40,10.90
2014,11,28,01,41,10.90
2014,11,28,01,42,10.90
2014,11,28,01,43,10.90
2014,11,28,01,44,10.90
2014,11,28,01,45,10.90
2014,11,28,01,46,10.90
2014,11,28,01,47,10.90
2014,11,28,01,48,10.90
2014,11,28,01,49,10.90
2014,11,28,01,50,10.90
2014,11,28,01,51,10.90
2014,11,28,01,52,10.90
2014,11,28,01,53,10.90
2014,11,28,01,54,10.90
2014,11,28,01,55,10.90
2014,11,28,01,56,10.90
2014,11,28,01,57,10.80
2014,11,28,01,58,10.80
2014,11,28,01,59,10.80
2014,11,28,02,00,10.80
2014,11,28,02,01,10.80
2014,11,28,02,02,10.80
2014,11,28,02,03,10.80
2014,11,28,02,04,10.80
2014,11,28,02,05,10.90
2014,11,28,02,06,10.90
2014,11,28,02,07,10.90
2014,11,28,02,08,10.90
2014,11,28,02,09,10.90
2014,11,28,02,10,10.90
2014,11,28,02,11,10.90
2014,11,28,02,12,10.90
2014,11,28,02,13,10.90
2014,11,28,02,14,10.90
2014,11,28,02,15,10.90
2014,11,28,02,16,10.90
2014,11,28,02,17,10.90
2014,11,28,02,18,10.90
2014,11,28,02,19,10.90
2014,11,28,02,20,10.90
2014,11,28,02,21,10.90
2014,11,28,02,22,10.90
2014,11,28,02,23,10.90
2014,11,28,02,24,10.90
2014,11,28,02,25,10.90
2014,11,28,02,26,10.90
2014,11,28,02,27,10.80
2014,11,28,02,28,10.80
2014,11,28,02,29,10.80
2014,11,28,02,30,10.80
2014,11,28,02,31,10.80
2014,11,28,02,32,10.80
2014,11,28,02,33,10.80
2014,11,28,02,34,10.80
2014,11,28,02,35,10.80
2014,11,28,02,36,10.80
2014,11,28,02,37,10.80
2014,11,28,02,38,10.80
2014,11,28,02,39,10.80
2014,11,28,02,40,10.80
2014,11,28,02,41,10.70
2014,11,28,02,42,10.70
2014,11,28,02,43,10.70
2014,11,28,02,44,10.70
2014,11,28,02,45,10.70
2014,11,28,02,46,10.70
2014,11,28,02,47,10.70
2014,11,28,02,48,10.60
2014,11,28,02,49,10.60
2014,11,28,02,50,10.60
2014,11,28,02,51,10.60
2014,11,28,02,52,10.60
2014,11,28,02,53,10.60
2014,11,28,02,54,10.60
2014,11,28,02,55,10.50
2014,11,28,02,56,10.50
2014,11,28,02,57,10.40
2014,11,28,02,58,10.40
2014,11,28,02,59,10.40
2014,11,28,03,00,10.40
2014,11,28,03,01,10.40
2014,11,28,03,02,10.30
2014,11,28,03,06,10.30
2014,11,28,03,07,10.30
2014,11,28,03,08,10.20
2014,11,28,03,09,10.20
2014,11,28,03,10,10.20
2014,11,28,03,11,10.20
2014,11,28,03,12,10.20
2014,11,28,03,13,10.20
2014,11,28,03,14,10.20
2014,11,28,03,15,10.20
2014,11,28,03,16,10.20
2014,11,28,03,17,10.20
2014,11,28,03,18,10.20
2014,11,28,03,19,10.10
2014,11,28,03,20,10.10
2014,11,28,03,21,10.10
2014,11,28,03,22,10.10
2014,11,28,03,23,10.10
2014,11,28,03,24,10.10
2014,11,28,03,25,10.10
2014,11,28,03,26,10.10
2014,11,28,03,27,10.10
2014,11,28,03,28,10.10
2014,11,28,03,29,10.10
2014,11,28,03,30,10.10
2014,11,28,03,31,10.10
2014,11,28,03,32,10.10
2014,11,28,03,33,10.10
2014,11,28,03,34,10.00
2014,11,28,03,35,10.00
2014,11,28,03,36,10.00
2014,11,28,03,37,9.90
2014,11,28,03,38,9.90
2014,11,28,03,39,9.90
2014,11,28,03,40,9.80
2014,11,28,03,41,9.80
2014,11,28,03,42,9.80
2014,11,28,03,43,9.80
2014,11,28,03,44,9.70
2014,11,28,03,45,9.70
2014,11,28,03,46,9.70
2014,11,28,03,47,9.70
2014,11,28,03,48,9.60
2014,11,28,03,49,9.60
2014,11,28,03,50,9.60
2014,11,28,03,51,9.60
2014,11,28,03,52,9.60
2014,11,28,03,53,9.60
2014,11,28,03,54,9.50
2014,11,28,03,55,9.50
2014,11,28,03,56,9.50
2014,11,28,03,57,9.40
2014,11,28,03,58,9.40
2014,11,28,03,59,9.40
2014,11,28,04,00,9.30
2014,11,28,04,01,9.30
2014,11,28,04,02,9.30
2014,11,28,04,03,9.30
2014,11,28,04,04,9.30
2014,11,28,04,05,9.30
2014,11,28,04,06,9.30
2014,11,28,04,07,9.20
2014,11,28,04,08,9.20
2014,11,28,04,09,9.00
2014,11,28,04,10,8.90
2014,11,28,04,11,8.80
2014,11,28,04,12,8.70
2014,11,28,04,13,8.70
2014,11,28,04,14,8.60
2014,11,28,04,15,8.60
2014,11,28,04,16,8.50
2014,11,28,04,17,8.50
2014,11,28,04,18,8.40
2014,11,28,04,19,8.40
2014,11,28,04,20,8.30
2014,11,28,04,21,8.30
2014,11,28,04,22,8.20
2014,11,28,04,23,8.20
2014,11,28,04,24,8.10
2014,11,28,04,25,8.00
2014,11,28,04,26,7.90
2014,11,28,04,27,7.80
2014,11,28,04,28,7.70
2014,11,28,04,29,7.60
2014,11,28,04,30,7.60
2014,11,28,04,31,7.50
2014,11,28,04,32,7.50
2014,11,28,04,33,7.40
2014,11,28,04,34,7.40
2014,11,28,04,35,7.40
2014,11,28,04,36,7.40
2014,11,28,04,37,7.30
2014,11,28,04,38,7.30
2014,11,28,04,39,7.30
2014,11,28,04,40,7.30
2014,11,28,04,41,7.30
2014,11,28,04,42,7.20
2014,11,28,04,43,7.20
2014,11,28,04,44,7.20
2014,11,28,04,45,7.10
2014,11,28,04,46,7.10
2014,11,28,04,47,7.10
2014,11,28,04,48,7.00
2014,11,28,04,49,7.00
2014,11,28,04,50,6.90
2014,11,28,04,51,6.90
2014,11,28,04,52,6.90
2014,11,28,04,53,6.80
2014,11,28,04,54,6.80
2014,11,28,04,55,6.80
2014,11,28,04,56,6.80
2014,11,28,04,57,6.70
2014,11,28,04,58,6.70
2014,11,28,04,59,6.70
2014,11,28,05,00,6.70
2014,11,28,05,01,6.60
2014,11,28,05,02,6.60
2014,11,28,05,03,6.50
2014,11,28,05,04,6.50
2014,11,28,05,05,6.40
2014,11,28,05,06,6.40
2014,11,28,05,07,6.40
2014,11,28,05,08,6.30
2014,11,28,05,09,6.30
2014,11,28,05,10,6.30
2014,11,28,05,11,6.30
2014,11,28,05,12,6.30
2014,11,28,05,13,6.20
2014,11,28,05,14,6.20
2014,11,28,05,15,6.20
2014,11,28,05,16,6.20
2014,11,28,05,17,6.20
2014,11,28,05,18,6.10
2014,11,28,05,19,6.10
2014,11,28,05,20,6.10
2014,11,28,05,21,6.10
2014,11,28,05,22,6.10
2014,11,28,05,23,6.00
2014,11,28,05,24,6.00
2014,11,28,05,25,6.00
2014,11,28,05,26,5.90
2014,11,28,05,27,5.90
2014,11,28,05,28,5.90
2014,11,28,05,29,5.90
2014,11,28,05,30,5.90
2014,11,28,05,31,5.90
2014,11,28,05,32,5.90
2014,11,28,05,33,5.90
2014,11,28,05,34,5.90
2014,11,28,05,35,5.90
2014,11,28,05,36,5.90
2014,11,28,05,37,5.90
2014,11,28,05,38,5.90
2014,11,28,05,39,5.90
2014,11,28,05,40,5.90
2014,11,28,05,41,5.90
2014,11,28,05,42,5.90
2014,11,28,05,43,5.90
2014,11,28,05,44,5.90
2014,11,28,05,45,5.90
2014,11,28,05,46,5.90
2014,11,28,05,47,5.90
2014,11,28,05,48,5.80
2014,11,28,05,49,5.80
2014,11,28,05,50,5.80
2014,11,28,05,51,5.80
2014,11,28,05,52,5.80
2014,11,28,05,53,5.80
2014,11,28,05,54,5.80
2014,11,28,05,55,5.80
2014,11,28,05,56,5.80
2014,11,28,05,57,5.90
2014,11,28,05,58,5.90
2014,11,28,05,59,5.90
2014,11,28,06,00,5.90
2014,11,28,06,01,5.90
2014,11,28,06,02,5.90
2014,11,28,06,03,5.90
2014,11,28,06,04,5.90
2014,11,28,06,05,5.90
2014,11,28,06,06,5.90
2014,11,28,06,07,5.90
2014,11,28,06,08,5.90
2014,11,28,06,09,5.90
2014,11,28,06,10,5.90
2014,11,28,06,11,5.90
2014,11,28,06,12,5.90
2014,11,28,06,13,5.90
2014,11,28,06,14,5.90
2014,11,28,06,15,5.90
2014,11,28,06,16,5.90
2014,11,28,06,17,5.90
2014,11,28,06,18,5.90
2014,11,28,06,19,5.90
2014,11,28,06,20,5.90
2014,11,28,06,21,5.90
2014,11,28,06,22,5.90
2014,11,28,06,23,5.90
2014,11,28,06,24,5.90
2014,11,28,06,25,5.90
2014,11,28,06,26,5.90
2014,11,28,06,27,5.90
2014,11,28,06,28,5.90
2014,11,28,06,29,5.90
2014,11,28,06,30,5.90
2014,11,28,06,31,5.90
2014,11,28,06,32,5.90
2014,11,28,06,33,5.90
2014,11,28,06,34,5.90
2014,11,28,06,35,5.90
2014,11,28,06,36,5.90
2014,11,28,06,37,5.90
2014,11,28,06,38,5.90
2014,11,28,06,39,5.90
2014,11,28,06,40,5.90
2014,11,28,06,41,5.90
2014,11,28,06,42,5.80
2014,11,28,06,43,5.80
2014,11,28,06,44,5.80
2014,11,28,06,45,5.80
2014,11,28,06,46,5.80
2014,11,28,06,47,5.80
2014,11,28,06,48,5.70
2014,11,28,06,49,5.70
2014,11,28,06,50,5.70
2014,11,28,06,51,5.80
2014,11,28,06,52,5.80
2014,11,28,06,53,5.80
2014,11,28,06,54,5.80
2014,11,28,06,55,5.80
2014,11,28,06,56,5.80
2014,11,28,06,57,5.80
2014,11,28,06,58,5.80
2014,11,28,06,59,5.70
2014,11,28,07,00,5.70
2014,11,28,07,01,5.70
2014,11,28,07,02,5.70
2014,11,28,07,03,5.70
2014,11,28,07,04,5.70
2014,11,28,07,05,5.70
2014,11,28,07,06,5.70
2014,11,28,07,07,5.70
2014,11,28,07,08,5.70
2014,11,28,07,09,5.70
2014,11,28,07,10,5.70
2014,11,28,07,11,5.70
2014,11,28,07,12,5.70
2014,11,28,07,13,5.70
2014,11,28,07,14,5.70
2014,11,28,07,15,5.70
2014,11,28,07,16,5.70
2014,11,28,07,17,5.70
2014,11,28,07,18,5.70
2014,11,28,07,19,5.70
2014,11,28,07,20,5.70
2014,11,28,07,21,5.70
2014,11,28,07,22,5.70
2014,11,28,07,23,5.60
2014,11,28,07,24,5.60
2014,11,28,07,25,5.60
2014,11,28,07,26,5.60
2014,11,28,07,27,5.60
2014,11,28,07,28,5.60
2014,11,28,07,29,5.60
2014,11,28,07,30,5.60
2014,11,28,07,31,5.60
2014,11,28,07,32,5.60
2014,11,28,07,33,5.60
2014,11,28,07,34,5.60
2014,11,28,07,35,5.60
2014,11,28,07,36,5.60
2014,11,28,07,37,5.60
2014,11,28,07,38,5.60
2014,11,28,07,39,5.60
2014,11,28,07,40,5.60
2014,11,28,07,41,5.60
2014,11,28,07,42,5.60
2014,11,28,07,43,5.60
2014,11,28,07,44,5.60
2014,11,28,07,45,5.60
2014,11,28,07,46,5.60
2014,11,28,07,47,5.60
2014,11,28,07,48,5.60
2014,11,28,07,49,5.50
2014,11,28,07,50,5.50
2014,11,28,07,51,5.50
2014,11,28,07,52,5.40
2014,11,28,07,53,5.40
2014,11,28,07,54,5.40
2014,11,28,07,55,5.40
2014,11,28,07,56,5.30
2014,11,28,07,57,5.30
2014,11,28,07,58,5.30
2014,11,28,07,59,5.30
2014,11,28,08,00,5.30
2014,11,28,08,01,5.30
2014,11,28,08,02,5.30
2014,11,28,08,03,5.30
2014,11,28,08,04,5.30
2014,11,28,08,05,5.30
2014,11,28,08,06,5.30
2014,11,28,08,07,5.30
2014,11,28,08,08,5.30
2014,11,28,08,09,5.30
2014,11,28,08,10,5.30
2014,11,28,08,11,5.30
2014,11,28,08,12,5.30
2014,11,28,08,13,5.30
2014,11,28,08,14,5.30
2014,11,28,08,15,5.40
2014,11,28,08,16,5.40
2014,11,28,08,17,5.40
2014,11,28,08,18,5.40
2014,11,28,08,19,5.40
2014,11,28,08,20,5.40
2014,11,28,08,21,5.40
2014,11,28,08,22,5.40
2014,11,28,08,23,5.40
2014,11,28,08,24,5.40
2014,11,28,08,25,5.40
2014,11,28,08,26,5.40
2014,11,28,08,27,5.40
2014,11,28,08,28,5.40
2014,11,28,08,29,5.40
2014,11,28,08,30,5.30
2014,11,28,08,31,5.30
2014,11,28,08,32,5.30
2014,11,28,08,33,5.30
2014,11,28,08,34,5.30
2014,11,28,08,35,5.30
2014,11,28,08,36,5.30
2014,11,28,08,37,5.30
2014,11,28,08,38,5.30
2014,11,28,08,39,5.30
2014,11,28,08,40,5.30
2014,11,28,08,41,5.30
2014,11,28,08,42,5.30
2014,11,28,08,43,5.30
2014,11,28,08,44,5.30
2014,11,28,08,45,5.30
2014,11,28,08,46,5.30
2014,11,28,08,47,5.30
2014,11,28,08,48,5.30
2014,11,28,08,49,5.20
2014,11,28,08,50,5.20
2014,11,28,08,51,5.20
2014,11,28,08,52,5.20
2014,11,28,08,53,5.10
2014,11,28,08,54,5.10
2014,11,28,08,55,5.10
2014,11,28,08,56,5.10
2014,11,28,08,57,5.10
2014,11,28,08,58,5.10
2014,11,28,08,59,5.10
2014,11,28,09,00,5.10
2014,11,28,09,01,5.00
2014,11,28,09,02,5.00
2014,11,28,09,03,5.00
2014,11,28,09,04,4.90
2014,11,28,09,05,4.90
2014,11,28,09,06,4.90
2014,11,28,09,07,4.90
2014,11,28,09,08,4.90
2014,11,28,09,09,4.90
2014,11,28,09,10,4.80
2014,11,28,09,11,4.80
2014,11,28,09,12,4.80
2014,11,28,09,13,4.80
2014,11,28,09,14,4.80
2014,11,28,09,15,4.80
2014,11,28,09,16,4.80
2014,11,28,09,17,4.80
2014,11,28,09,18,4.80
2014,11,28,09,19,4.80
2014,11,28,09,20,4.80
2014,11,28,09,21,4.80
2014,11,28,09,22,4.80
2014,11,28,09,23,4.80
2014,11,28,09,24,4.80
2014,11,28,09,25,4.80
2014,11,28,09,26,4.80
2014,11,28,09,27,4.80
2014,11,28,09,28,4.80
2014,11,28,09,29,4.80
2014,11,28,09,30,4.80
2014,11,28,09,31,4.80
2014,11,28,09,32,4.80
2014,11,28,09,33,4.80
2014,11,28,09,34,4.80
2014,11,28,09,35,4.80
2014,11,28,09,36,4.80
2014,11,28,09,37,4.80
2014,11,28,09,38,4.80
2014,11,28,09,39,4.80
2014,11,28,09,40,4.80
2014,11,28,09,41,4.90
2014,11,28,09,42,4.90
2014,11,28,09,43,4.90
2014,11,28,09,44,4.90
2014,11,28,09,45,4.90
2014,11,28,09,46,4.90
2014,11,28,09,47,4.90
2014,11,28,09,48,4.90
2014,11,28,09,49,4.90
2014,11,28,09,50,4.90
2014,11,28,09,51,4.90
2014,11,28,09,52,4.90
2014,11,28,09,53,4.90
2014,11,28,09,54,4.90
2014,11,28,09,55,4.90
2014,11,28,09,56,4.90
2014,11,28,09,57,5.00
2014,11,28,09,58,5.00
2014,11,28,09,59,5.00
2014,11,28,10,00,5.00
2014,11,28,10,01,5.10
2014,11,28,10,02,5.10
2014,11,28,10,03,5.10
2014,11,28,10,04,5.10
2014,11,28,10,05,5.10
2014,11,28,10,06,5.10
2014,11,28,10,07,5.10
2014,11,28,10,08,5.10
2014,11,28,10,09,5.10
2014,11,28,10,10,5.10
2014,11,28,10,11,5.20
2014,11,28,10,12,5.20
2014,11,28,10,13,5.20
2014,11,28,10,14,5.20
2014,11,28,10,15,5.20
2014,11,28,10,16,5.20
2014,11,28,10,17,5.20
2014,11,28,10,18,5.20
2014,11,28,10,19,5.30
2014,11,28,10,20,5.30
2014,11,28,10,21,5.30
2014,11,28,10,22,5.30
2014,11,28,10,23,5.30
2014,11,28,10,24,5.40
2014,11,28,10,25,5.40
2014,11,28,10,26,5.40
2014,11,28,10,27,5.40
2014,11,28,10,28,5.40
2014,11,28,10,29,5.40
2014,11,28,10,30,5.40
2014,11,28,10,31,5.40
2014,11,28,10,32,5.40
2014,11,28,10,33,5.40
2014,11,28,10,34,5.50
2014,11,28,10,35,5.50
2014,11,28,10,36,5.40
2014,11,28,10,37,5.40
2014,11,28,10,38,5.40
2014,11,28,10,39,5.50
2014,11,28,10,40,5.50
2014,11,28,10,41,5.50
2014,11,28,10,42,5.50
2014,11,28,10,43,5.50
2014,11,28,10,44,5.50
2014,11,28,10,45,5.60
2014,11,28,10,46,5.60
2014,11,28,10,47,5.60
2014,11,28,10,48,5.60
2014,11,28,10,49,5.60
2014,11,28,10,50,5.60
2014,11,28,10,51,5.60
2014,11,28,10,52,5.60
2014,11,28,10,53,5.60
2014,11,28,10,54,5.60
2014,11,28,10,55,5.60
2014,11,28,10,56,5.60
2014,11,28,10,57,5.60
2014,11,28,10,58,5.60
2014,11,28,10,59,5.60
2014,11,28,11,00,5.60
2014,11,28,11,01,5.60
2014,11,28,11,02,5.60
2014,11,28,11,03,5.60
2014,11,28,11,04,5.60
2014,11,28,11,05,5.70
2014,11,28,11,06,5.70
2014,11,28,11,07,5.70
2014,11,28,11,08,5.70
2014,11,28,11,09,5.70
2014,11,28,11,10,5.70
2014,11,28,11,11,5.70
2014,11,28,11,12,5.60
2014,11,28,11,13,5.70
2014,11,28,11,14,5.70
2014,11,28,11,15,5.70
2014,11,28,11,16,5.70
2014,11,28,11,17,5.70
2014,11,28,11,18,5.70
2014,11,28,11,19,5.70
2014,11,28,11,20,5.80
2014,11,28,11,21,5.80
2014,11,28,11,22,5.80
2014,11,28,11,23,5.80
2014,11,28,11,24,5.80
2014,11,28,11,25,5.80
2014,11,28,11,26,5.80
2014,11,28,11,27,5.80
2014,11,28,11,28,5.80
2014,11,28,11,29,5.80
2014,11,28,11,30,5.80
2014,11,28,11,31,5.80
2014,11,28,11,32,5.80
2014,11,28,11,33,5.80
2014,11,28,11,34,5.80
2014,11,28,11,35,5.80
2014,11,28,11,36,5.80
2014,11,28,11,37,5.80
2014,11,28,11,38,5.70
2014,11,28,11,39,5.70
2014,11,28,11,40,5.70
2014,11,28,11,41,5.70
2014,11,28,11,42,5.70
2014,11,28,11,43,5.70
2014,11,28,11,44,5.70
2014,11,28,11,45,5.70
2014,11,28,11,46,5.70
2014,11,28,11,47,5.70
2014,11,28,11,48,5.70
2014,11,28,11,49,5.70
2014,11,28,11,50,5.70
2014,11,28,11,51,5.70
2014,11,28,11,52,5.70
2014,11,28,11,53,5.70
2014,11,28,11,54,5.70
2014,11,28,11,55,5.70
2014,11,28,11,56,5.70
2014,11,28,11,57,5.70
2014,11,28,11,58,5.60
2014,11,28,11,59,5.60
2014,11,28,12,00,5.60
2014,11,28,12,01,5.60
2014,11,28,12,02,5.60
2014,11,28,12,03,5.60
2014,11,28,12,04,5.60
2014,11,28,12,05,5.60
2014,11,28,12,06,5.60
2014,11,28,12,07,5.60
2014,11,28,12,08,5.60
2014,11,28,12,09,5.70
2014,11,28,12,10,5.70
2014,11,28,12,11,5.70
2014,11,28,12,12,5.70
2014,11,28,12,13,5.70
2014,11,28,12,14,5.70
2014,11,28,12,15,5.70
2014,11,28,12,16,5.70
2014,11,28,12,17,5.70
2014,11,28,12,18,5.70
2014,11,28,12,19,5.70
2014,11,28,12,20,5.70
2014,11,28,12,21,5.60
2014,11,28,12,22,5.70
2014,11,28,12,23,5.70
2014,11,28,12,24,5.70
2014,11,28,12,25,5.70
2014,11,28,12,26,5.70
2014,11,28,12,27,5.70
2014,11,28,12,28,5.70
2014,11,28,12,29,5.70
2014,11,28,12,30,5.70
2014,11,28,12,31,5.70
2014,11,28,12,32,5.70
2014,11,28,12,33,5.70
2014,11,28,12,34,5.70
2014,11,28,12,35,5.70
2014,11,28,12,36,5.70
2014,11,28,12,37,5.70
2014,11,28,12,38,5.70
2014,11,28,12,39,5.60
2014,11,28,12,40,5.60
2014,11,28,12,41,5.60
2014,11,28,12,42,5.60
2014,11,28,12,43,5.60
2014,11,28,12,44,5.60
2014,11,28,12,45,5.60
2014,11,28,12,46,5.60
2014,11,28,12,47,5.60
2014,11,28,12,48,5.60
2014,11,28,12,49,5.60
2014,11,28,12,50,5.60
2014,11,28,12,51,5.60
2014,11,28,12,52,5.50
2014,11,28,12,53,5.50
2014,11,28,12,54,5.50
2014,11,28,12,55,5.50
2014,11,28,12,56,5.50
2014,11,28,12,57,5.50
2014,11,28,12,58,5.50
2014,11,28,12,59,5.50
2014,11,28,13,00,5.40
2014,11,28,13,01,5.40
2014,11,28,13,02,5.40
2014,11,28,13,03,5.40
2014,11,28,13,04,5.40
2014,11,28,13,05,5.40
2014,11,28,13,06,5.40
2014,11,28,13,07,5.40
2014,11,28,13,08,5.40
2014,11,28,13,09,5.40
2014,11,28,13,10,5.40
2014,11,28,13,11,5.30
2014,11,28,13,12,5.30
2014,11,28,13,13,5.30
2014,11,28,13,14,5.30
2014,11,28,13,15,5.30
2014,11,28,13,16,5.30
2014,11,28,13,17,5.30
2014,11,28,13,18,5.20
2014,11,28,13,19,5.20
2014,11,28,13,20,5.20
2014,11,28,13,21,5.20
2014,11,28,13,22,5.20
2014,11,28,13,23,5.20
2014,11,28,13,24,5.20
2014,11,28,13,25,5.20
2014,11,28,13,26,5.20
2014,11,28,13,27,5.20
2014,11,28,13,28,5.30
2014,11,28,13,29,5.30
2014,11,28,13,30,5.30
2014,11,28,13,31,5.30
2014,11,28,13,32,5.30
2014,11,28,13,33,5.30
2014,11,28,13,34,5.40
2014,11,28,13,35,5.40
2014,11,28,13,36,5.40
2014,11,28,13,37,5.40
2014,11,28,13,38,5.40
2014,11,28,13,39,5.40
2014,11,28,13,40,5.40
2014,11,28,13,41,5.40
2014,11,28,13,42,5.40
2014,11,28,13,43,5.40
2014,11,28,13,44,5.50
2014,11,28,13,45,5.50
2014,11,28,13,46,5.50
2014,11,28,13,47,5.50
2014,11,28,13,48,5.50
2014,11,28,13,49,5.60
2014,11,28,13,50,5.60
2014,11,28,13,51,5.60
2014,11,28,13,52,5.60
2014,11,28,13,53,5.60
2014,11,28,13,54,5.60
2014,11,28,13,55,5.70
2014,11,28,13,56,5.70
2014,11,28,13,57,5.70
2014,11,28,13,58,5.70
2014,11,28,13,59,5.70
2014,11,28,14,00,5.70
2014,11,28,14,01,5.70
2014,11,28,14,02,5.70
2014,11,28,14,03,5.60
2014,11,28,14,04,5.60
2014,11,28,14,05,5.60
2014,11,28,14,06,5.60
2014,11,28,14,07,5.60
2014,11,28,14,08,5.60
2014,11,28,14,09,5.60
2014,11,28,14,10,5.60
2014,11,28,14,11,5.60
2014,11,28,14,12,5.50
2014,11,28,14,13,5.50
2014,11,28,14,14,5.40
2014,11,28,14,15,5.40
2014,11,28,14,16,5.40
2014,11,28,14,17,5.40
2014,11,28,14,18,5.40
2014,11,28,14,19,5.40
2014,11,28,14,20,5.40
2014,11,28,14,21,5.40
2014,11,28,14,22,5.40
2014,11,28,14,23,5.40
2014,11,28,14,24,5.40
2014,11,28,14,25,5.40
2014,11,28,14,26,5.30
2014,11,28,14,27,5.30
2014,11,28,14,28,5.30
2014,11,28,14,29,5.30
2014,11,28,14,30,5.30
2014,11,28,14,31,5.30
2014,11,28,14,32,5.30
2014,11,28,14,33,5.20
2014,11,28,14,34,5.30
2014,11,28,14,35,5.30
2014,11,28,14,36,5.30
2014,11,28,14,37,5.30
2014,11,28,14,38,5.40
2014,11,28,14,39,5.40
2014,11,28,14,40,5.40
2014,11,28,14,41,5.40
2014,11,28,14,42,5.40
2014,11,28,14,43,5.30
2014,11,28,14,44,5.30
2014,11,28,14,45,5.30
2014,11,28,14,46,5.30
2014,11,28,14,47,5.30
2014,11,28,14,48,5.30
2014,11,28,14,49,5.30
2014,11,28,14,50,5.20
2014,11,28,14,51,5.20
2014,11,28,14,52,5.20
2014,11,28,14,53,5.20
2014,11,28,14,54,5.20
2014,11,28,14,55,5.10
2014,11,28,14,56,5.10
2014,11,28,14,57,5.10
2014,11,28,14,58,5.10
2014,11,28,14,59,5.00
2014,11,28,15,00,5.00
2014,11,28,15,01,4.90
2014,11,28,15,02,4.90
2014,11,28,15,03,4.90
2014,11,28,15,04,4.80
2014,11,28,15,05,4.80
2014,11,28,15,06,4.80
2014,11,28,15,07,4.80
2014,11,28,15,08,4.80
2014,11,28,15,09,4.80
2014,11,28,15,10,4.70
2014,11,28,15,11,4.70
2014,11,28,15,12,4.70
2014,11,28,15,13,4.70
2014,11,28,15,14,4.70
2014,11,28,15,15,4.70
2014,11,28,15,16,4.70
2014,11,28,15,17,4.60
2014,11,28,15,18,4.60
2014,11,28,15,19,4.60
2014,11,28,15,20,4.60
2014,11,28,15,21,4.60
2014,11,28,15,22,4.60
2014,11,28,15,23,4.60
2014,11,28,15,24,4.60
2014,11,28,15,25,4.60
2014,11,28,15,26,4.60
2014,11,28,15,27,4.60
2014,11,28,15,28,4.60
2014,11,28,15,29,4.60
2014,11,28,15,30,4.60
2014,11,28,15,31,4.60
2014,11,28,15,32,4.60
2014,11,28,15,33,4.60
2014,11,28,15,34,4.60
2014,11,28,15,35,4.60
2014,11,28,15,36,4.60
2014,11,28,15,37,4.60
2014,11,28,15,38,4.60
2014,11,28,15,39,4.60
2014,11,28,15,40,4.60
2014,11,28,15,41,4.60
2014,11,28,15,42,4.60
2014,11,28,15,43,4.60
2014,11,28,15,44,4.60
2014,11,28,15,45,4.60
2014,11,28,15,46,4.60
2014,11,28,15,47,4.60
2014,11,28,15,48,4.60
2014,11,28,15,49,4.60
2014,11,28,15,50,4.50
2014,11,28,15,51,4.50
2014,11,28,15,52,4.50
2014,11,28,15,53,4.50
2014,11,28,15,54,4.50
2014,11,28,15,55,4.40
2014,11,28,15,56,4.40
2014,11,28,15,57,4.40
2014,11,28,15,58,4.40
2014,11,28,15,59,4.40
2014,11,28,16,00,4.40
2014,11,28,16,01,4.40
2014,11,28,16,02,4.40
2014,11,28,16,03,4.30
2014,11,28,16,04,4.30
2014,11,28,16,05,4.30
2014,11,28,16,06,4.30
2014,11,28,16,07,4.30
2014,11,28,16,08,4.30
2014,11,28,16,09,4.20
2014,11,28,16,10,4.20
2014,11,28,16,11,4.20
2014,11,28,16,12,4.20
2014,11,28,16,13,4.20
2014,11,28,16,14,4.20
2014,11,28,16,15,4.20
2014,11,28,16,16,4.20
2014,11,28,16,17,4.10
2014,11,28,16,18,4.10
2014,11,28,16,19,4.10
2014,11,28,16,20,4.10
2014,11,28,16,21,4.10
2014,11,28,16,22,4.10
2014,11,28,16,23,4.00
2014,11,28,16,24,4.00
2014,11,28,16,25,3.90
2014,11,28,16,26,3.90
2014,11,28,16,27,3.90
2014,11,28,16,28,3.80
2014,11,28,16,29,3.80
2014,11,28,16,30,3.80
2014,11,28,16,31,3.80
2014,11,28,16,32,3.80
2014,11,28,16,33,3.70
2014,11,28,16,34,3.70
2014,11,28,16,35,3.70
2014,11,28,16,36,3.60
2014,11,28,16,37,3.60
2014,11,28,16,38,3.60
2014,11,28,16,39,3.60
2014,11,28,16,40,3.60
2014,11,28,16,41,3.50
2014,11,28,16,42,3.50
2014,11,28,16,43,3.50
2014,11,28,16,44,3.50
2014,11,28,16,45,3.40
2014,11,28,16,46,3.40
2014,11,28,16,47,3.40
2014,11,28,16,48,3.40
2014,11,28,16,49,3.40
2014,11,28,16,50,3.30
2014,11,28,16,51,3.30
2014,11,28,16,52,3.30
2014,11,28,16,53,3.30
2014,11,28,16,54,3.30
2014,11,28,16,55,3.30
2014,11,28,16,56,3.30
2014,11,28,16,57,3.20
2014,11,28,16,58,3.20
2014,11,28,16,59,3.20
2014,11,28,17,00,3.20
2014,11,28,17,01,3.10
2014,11,28,17,02,3.10
2014,11,28,17,03,3.10
2014,11,28,17,04,3.10
2014,11,28,17,05,3.00
2014,11,28,17,06,3.00
2014,11,28,17,07,3.00
2014,11,28,17,08,2.90
2014,11,28,17,09,2.90
2014,11,28,17,10,2.90
2014,11,28,17,11,2.90
2014,11,28,17,12,2.80
2014,11,28,17,13,2.80
2014,11,28,17,14,2.80
2014,11,28,17,15,2.80
2014,11,28,17,16,2.80
2014,11,28,17,17,2.80
2014,11,28,17,18,2.80
2014,11,28,17,19,2.80
2014,11,28,17,20,2.80
2014,11,28,17,21,2.70
2014,11,28,17,22,2.70
2014,11,28,17,23,2.70
2014,11,28,17,24,2.70
2014,11,28,17,25,2.70
2014,11,28,17,26,2.70
2014,11,28,17,27,2.70
2014,11,28,17,28,2.70
2014,11,28,17,29,2.70
2014,11,28,17,30,2.70
2014,11,28,17,31,2.70
2014,11,28,17,32,2.70
2014,11,28,17,33,2.70
2014,11,28,17,34,2.70
2014,11,28,17,35,2.60
2014,11,28,17,36,2.60
2014,11,28,17,37,2.60
2014,11,28,17,38,2.60
2014,11,28,17,39,2.60
2014,11,28,17,40,2.60
2014,11,28,17,41,2.60
2014,11,28,17,42,2.60
2014,11,28,17,43,2.60
2014,11,28,17,44,2.60
2014,11,28,17,45,2.60
2014,11,28,17,46,2.50
2014,11,28,17,47,2.50
2014,11,28,17,48,2.50
2014,11,28,17,49,2.50
2014,11,28,17,50,2.50
2014,11,28,17,51,2.50
2014,11,28,17,52,2.40
2014,11,28,17,53,2.40
2014,11,28,17,54,2.40
2014,11,28,17,55,2.40
2014,11,28,17,56,2.40
2014,11,28,17,57,2.40
2014,11,28,17,58,2.40
2014,11,28,17,59,2.40
2014,11,28,18,00,2.40